Regional Weather Roundup
Issued by NWS

Home | Current Version | Previous Version | Text Only | Print | Product List | Glossary On
Versions: 1 2 3 4 5 6 7 8 9 10 11 12 13 14 15 16 17 18 19 20 21 22 23 24 25 26 27
000
ASUS44 KBMX 030510
RWRAL

ALABAMA REGIONAL WEATHER ROUNDUP
NATIONAL WEATHER SERVICE BIRMINGHAM AL
1200 AM CDT TUE MAY 03 2016

NOTE: "FAIR" INDICATES FEW OR NO CLOUDS BELOW 12,000 FEET
WITH NO SIGNIFICANT WEATHER AND/OR OBSTRUCTIONS TO VISIBILITY.

THE REMARK "TC" DENOTES TEMPERATURE IN DEGREES CELSIUS.

ALZ001>011-014-016>018-020-030600-
NORTH ALABAMA

CITY           SKY/WX    TMP DP  RH WIND       PRES   REMARKS
MUSCLE SHOALS  CLOUDY    63  58  83 NW7       29.97F
HUNTSVILLE     CLOUDY    66  61  84 N8        29.93S
DECATUR        CLOUDY    62  60  93 NW10      29.94F
HALEYVILLE     CLOUDY    61  60  97 NW7       29.98F FOG
GADSDEN        HVY RAIN  66  66 100 CALM      29.93S FOG
$$

ALZ012-013-022-023-030>036-040>044-030600-
WEST CENTRAL ALABAMA

CITY           SKY/WX    TMP DP  RH WIND       PRES   REMARKS
TUSCALOOSA     CLOUDY    67  65  93 NW7       29.94S
$$

ALZ015-024>027-033>036-040>044-030600-
CENTRAL ALABAMA

CITY           SKY/WX    TMP DP  RH WIND       PRES   REMARKS
BIRMINGHAM     CLOUDY    68  66  93 SW9       29.95F
MONTGOMERY     CLOUDY    68  65  90 NW3       29.93F
SHELBY CO ARPT FOG       65  64  97 CALM      29.94S VSB 3/4
MAXWELL AFB    NOT AVBL
GREENVILLE     FAIR      67  65  93 SW5       29.93S
$$

ALZ019-021-028-029-037-038-045>048-030600-
EAST CENTRAL ALABAMA

CITY           SKY/WX    TMP DP  RH WIND       PRES   REMARKS
ANNISTON       CLOUDY    66  64  93 SW3       29.93S
ALEXANDER CITY CLOUDY    67  67 100 CALM      29.94S
AUBURN         CLOUDY    66  64  93 W6        29.95R
$$

ALZ051>064-030600-
SOUTHWEST ALABAMA

CITY           SKY/WX    TMP DP  RH WIND       PRES   REMARKS
MOBILE         PTCLDY    66  66 100 NW3       29.95F
BROOKLEY FIELD CLEAR     68  68 100 NW3       29.96F
EVERGREEN      PTCLDY    67  66  97 CALM      29.95S FOG
$$

ALZ049-050-065>069-030600-
SOUTHEAST ALABAMA

CITY           SKY/WX    TMP DP  RH WIND       PRES   REMARKS
DOTHAN         CLOUDY    73  70  90 SW6       29.97S
OZARK          NOT AVBL
TROY           CLOUDY    68  66  93 CALM      29.94F
EUFAULA        MOCLDY    70  67  90 CALM      29.92F
$$




USA.gov is the U.S. government's official web portal to all federal, state and local government web resources and services.